Showing default

COSMOS 84, 1574

Orbit data source: Space-Track

COSMOS 84, 1574 is a payload satellite owned by OKB-10 (CIS) in LEO that was launched on Fri, 03 Sep 1965 UTC via a KOSMOS 65S3 launch vehicle from the Tyuratam Missile And Space Complex (TTMTR). Payload-class satellites include a variety of spacecraft equipped with specific instruments for various scientific and technological missions. These include communications satellites like Starlink; space stations such as the ISS; scientific satellites like the Hubble; Earth observation satellites from companies like Planet Labs, Umbra, and HawkEye 360; GPS; miniature CubeSats for education and research; and military/defense satellites.

Loading next visibility...
Identifier
1574, 1965-070E
Orbit
LEO
Country
Flag of CISCIS
Related business
Manufacturer
OKB-10
Mission
Spacecraft
Bus & Motor
STRELA-1 11F610, Unknown motor
Mass
50 kg wet, 50 kg dry
Launch date (UTC)
1965-09-03 (60 years ago)
Launch vehicle
KOSMOS 65S3
Launch site
Tyuratam Missile And Space Complex (TTMTR)
Object type
Payload
Rocket body
Debris
Shape & HBR
Unknown
Radar Cross Section
Medium (>0.1 m² and <1 m²)

Expand to show TLE details & history
Last TLE update: 17 hours ago

TLE from 17 hours ago
0 COSMOS 84
1  1574U 65070E   25353.54883551 -.00000082  00000-0  75136-4 0  9999
2  1574  56.0500 179.7454 0063889   1.7447  14.5254 12.37035784724205
Epoch: 2025-12-19T13:10Z
TLE epoch observation values (Epoch: 2025-12-19T13:10:19.388Z)
Latitude
13.58982°
Longitude
-96.90383°
Altitude
1,470.69 km
Speed
7.151 km/s
True Right ascension
12h 36m 15s
True Declination
13° 31' 07"
Sunlit
Object was in daylight at epoch
Visualization orbit readout
Latitude
Unknown
Longitude
Unknown
Altitude
Unknown
Speed
Unknown
Apparent Right ascension
Unknown
Apparent Declination
Unknown
Sunlit
N/A
Visualization observer readout
Local Sidereal Time
05:19:28
Azimuth
Unknown
Elevation
Unknown
Doppler factor
Unknown
Orbital elements
Apogee altitude
1,569.473 km
Perigee altitude
1,468.565 km
Semi-major axis
7,897.156 km
Eccentricity
0.00639
Inclination
56.05°
RAAN
179.7454°
Arg. of periapsis
1.7447°
True anomaly
14.71045°
Mean anomaly
14.5254°
Eccentric anomaly
14.61778°
Mean motion
3.09269 °/min
Orbital period
116.4 mins
BSTAR
0.000075136
Loading maneuver chart data...
Computing Atmospheric mass density...
Loading historical data...
Loading historical data...
Loading historical data...
Loading historical data...
Loading historical data...
Loading historical data...
Loading historical data...
Other satellites on launch #70 in the year 1965 (1965-09-03 UTC)

Documentation

Showing up to 5 results
|